Binghamton, NY

8:09 PM EST on December 07, 2016 (GMT -0500)
Binghamton Regional-Link

Weather History for KBGM - October, 2011

Change the Weather History Date:

Thursday, October 20, 2011

  Actual Average Record
Temperature  
Mean Temperature 52 °F 47 °F  
Max Temperature 59 °F 55 °F 77 °F (1963)
Min Temperature 45 °F 39 °F 20 °F (1972)
Degree Days  
Heating Degree Days 13 18  
Month to date heating degree days 225 297  
Since 1 July heating degree days 363 554  
Cooling Degree Days 0 0  
Month to date cooling degree days 0 0  
Year to date cooling degree days 527 379  
Growing Degree Days 2 (Base 50)    
Moisture  
Dew Point 49 °F    
Average Humidity 83    
Maximum Humidity 100    
Minimum Humidity 65    
Precipitation  
Precipitation 0.54 in 0.10 in 1.15 in (1976)
Month to date precipitation 3.16 2.18  
Year to date precipitation 60.93 32.02  
Snow  
Snow 0.00 in 0.00 in 1.30 in (1952)
Month to date snowfall 0.0 0.3  
Since 1 July snowfall 0.0 0.3  
Since 1 September snowfall 0.0 0.3  
Snow Depth 0.00 in    
Sea Level Pressure  
Sea Level Pressure 29.37 in    
Wind  
Wind Speed 12 mph (South)    
Max Wind Speed 22 mph    
Max Gust Speed 30 mph    
Visibility 8 miles    
Events Rain    
T = Trace of Precipitation, MM = Missing Value Source: NWS Daily Summary

Daily Weather History Graph

Daily Weather History Graph

Search for Another Location

Airport or City:

Trip Planner

Search our weather history database for the weather conditions in past years. The results will help you decide how hot, cold, wet, or windy it might be!

Date:

Astronomy

Oct. 20, 2011 Rise Set
Actual Time 7:22 AM EDT 6:14 PM EDT
Civil Twilight 6:53 AM EDT 6:43 PM EDT
Nautical Twilight 6:21 AM EDT 7:15 PM EDT
Astronomical Twilight 5:48 AM EDT 7:48 PM EDT
Moon No Moon Rise 2:29 PM EDT (10/20)
Length of Visible Light 11h 49m
Length of Day
10h 52m
Last Quarter, 44% of the Moon is Illuminated
Oct 20
Last Quarter
Oct 26
New
Nov 2
First Quarter
Nov 10
Full
Nov 18
Last Quarter

Hourly Weather History & Observations

Time (EDT) Temp. Windchill Dew Point Humidity Pressure Visibility Wind Dir Wind Speed Gust Speed Precip Events Conditions
12:02 AM 53.6 °F - 53.6 °F 100% 29.34 in 10.0 mi East 15.0 mph - N/A   Overcast
12:53 AM 55.0 °F - 54.0 °F 96% 29.31 in 4.0 mi East 11.5 mph - 0.04 in Rain Light Rain
1:13 AM 55.4 °F - 53.6 °F 94% 29.32 in 1.8 mi East 4.6 mph - N/A Rain Heavy Rain
1:28 AM 55.4 °F - 55.4 °F 100% 29.32 in 2.0 mi East 5.8 mph - 0.25 in Rain Heavy Rain
1:42 AM 55.4 °F - 55.4 °F 100% 29.33 in 4.0 mi ESE 6.9 mph - 0.28 in Rain Light Rain
1:53 AM 55.0 °F - 55.0 °F 100% 29.31 in 2.0 mi ESE 6.9 mph - 0.30 in Rain Rain
2:00 AM 55.4 °F - 55.4 °F 100% 29.32 in 1.0 mi ESE 5.8 mph - 0.01 in Rain Light Rain
2:14 AM 57.2 °F - 55.4 °F 94% 29.30 in 3.0 mi SE 12.7 mph 19.6 mph 0.01 in   Overcast
2:27 AM 57.2 °F - 55.4 °F 94% 29.30 in 10.0 mi SE 12.7 mph - 0.02 in   Overcast
2:53 AM 57.9 °F - 55.9 °F 93% 29.28 in 10.0 mi SE 18.4 mph 29.9 mph 0.02 in   Overcast
3:05 AM 57.2 °F - 55.4 °F 94% 29.30 in 10.0 mi SE 15.0 mph 25.3 mph N/A   Overcast
3:53 AM 57.9 °F - 55.9 °F 93% 29.25 in 10.0 mi SE 19.6 mph 25.3 mph N/A   Overcast
4:53 AM 59.0 °F - 57.0 °F 93% 29.22 in 10.0 mi SE 19.6 mph 25.3 mph 0.00 in Rain Light Rain
5:53 AM 59.0 °F - 57.9 °F 96% 29.23 in 2.5 mi SSE 18.4 mph 24.2 mph 0.09 in Rain Heavy Rain
6:00 AM 59.0 °F - 57.2 °F 94% 29.23 in 3.0 mi SE 16.1 mph 24.2 mph 0.02 in Rain Light Rain
6:22 AM 59.0 °F - 57.2 °F 94% 29.26 in 2.5 mi SW 18.4 mph 24.2 mph 0.07 in Rain Rain
6:27 AM 57.2 °F - 55.4 °F 94% 29.26 in 2.5 mi SW 11.5 mph 24.2 mph 0.12 in Rain Heavy Rain
6:29 AM 57.2 °F - 55.4 °F 94% 29.26 in 3.0 mi SW 11.5 mph 24.2 mph 0.13 in Rain Rain
6:37 AM 57.2 °F - 55.4 °F 94% 29.26 in 10.0 mi SW 9.2 mph 18.4 mph 0.13 in Rain Light Rain
6:53 AM 55.9 °F - 54.0 °F 93% 29.26 in 10.0 mi SW 9.2 mph - 0.13 in   Partly Cloudy
7:53 AM 54.0 °F - 51.1 °F 90% 29.29 in 10.0 mi SW 8.1 mph - N/A   Clear
8:31 AM 53.6 °F - 51.8 °F 94% 29.32 in 10.0 mi WSW 9.2 mph - N/A   Partly Cloudy
8:53 AM 54.0 °F - 50.0 °F 86% 29.33 in 10.0 mi SW 13.8 mph - N/A   Partly Cloudy
9:39 AM 53.6 °F - 48.2 °F 82% 29.34 in 10.0 mi SW 8.1 mph - N/A   Mostly Cloudy
9:49 AM 53.6 °F - 48.2 °F 82% 29.34 in 10.0 mi SW 10.4 mph - N/A   Overcast
9:53 AM 53.1 °F - 48.9 °F 86% 29.34 in 10.0 mi SSW 8.1 mph - N/A   Overcast
10:07 AM 53.6 °F - 48.2 °F 82% 29.35 in 10.0 mi South 5.8 mph - N/A   Overcast
10:53 AM 53.1 °F - 48.0 °F 83% 29.36 in 10.0 mi SW 10.4 mph 18.4 mph N/A   Overcast
11:53 AM 51.8 °F - 46.4 °F 82% 29.37 in 10.0 mi WSW 9.2 mph - N/A   Overcast
12:14 PM 51.8 °F - 42.8 °F 71% 29.39 in 10.0 mi SW 15.0 mph 23.0 mph N/A   Mostly Cloudy
12:53 PM 53.1 °F - 42.1 °F 66% 29.38 in 10.0 mi SW 12.7 mph 20.7 mph N/A   Overcast
1:53 PM 52.0 °F - 42.1 °F 69% 29.39 in 10.0 mi SW 9.2 mph 19.6 mph N/A   Overcast
2:53 PM 51.1 °F - 42.1 °F 71% 29.41 in 10.0 mi SW 10.4 mph - 0.00 in   Overcast
3:53 PM 48.9 °F - 39.9 °F 71% 29.43 in 10.0 mi SSW 12.7 mph 19.6 mph 0.00 in   Overcast
4:53 PM 48.0 °F - 39.9 °F 74% 29.47 in 7.0 mi SW 13.8 mph 21.9 mph 0.00 in Rain Light Rain
5:53 PM 46.9 °F - 39.0 °F 74% 29.49 in 10.0 mi SW 12.7 mph 21.9 mph 0.00 in   Overcast
6:53 PM 46.9 °F - 39.0 °F 74% 29.53 in 10.0 mi SSW 8.1 mph - N/A   Overcast
7:53 PM 46.9 °F - 37.9 °F 71% 29.55 in 10.0 mi SSW 10.4 mph - N/A   Overcast
8:53 PM 46.9 °F - 37.9 °F 71% 29.56 in 10.0 mi SSW 9.2 mph - N/A   Overcast
9:53 PM 46.9 °F - 36.0 °F 66% 29.59 in 10.0 mi SW 11.5 mph 19.6 mph N/A   Overcast
10:53 PM 46.0 °F 39.6 °F 35.1 °F 66% 29.61 in 10.0 mi SW 15.0 mph 25.3 mph N/A   Overcast
11:49 PM 44.6 °F 37.4 °F 35.6 °F 71% 29.60 in 10.0 mi WSW 16.1 mph 21.9 mph N/A   Overcast
11:53 PM 45.0 °F 39.3 °F 36.0 °F 71% 29.61 in 10.0 mi SW 11.5 mph 21.9 mph N/A   Overcast